time_stamp(utc),avg(mph),gust(mph),direction(deg),12m_air_temp(f),sonic_u(cm/s),sonic_v(cm/s),sonic_w(cm/s),pressure,2m_air_temp(f),pyranometer(W/m^2)
"2021-07-26 00:02:39+00",18.1,22.1,,75.9,-432,-712,7,1011.17,75.6,0
"2021-07-26 00:07:39+00",17.9,21.9,,75.8,-448,-725,12,1011.25,75.6,0
"2021-07-26 00:12:39+00",17.7,19.7,,75.8,-409,-706,24,1011.31,75.6,0
"2021-07-26 00:17:39+00",17.3,19.3,,75.8,-378,-693,2,1011.25,75.6,0
"2021-07-26 00:22:39+00",17.6,20.6,,75.9,-401,-709,0,1011.28,75.6,0
"2021-07-26 00:27:39+00",19.3,22.3,,76,-458,-755,2,1011.43,75.7,0
"2021-07-26 00:32:39+00",18.4,23.4,,75.9,-400,-746,0,1011.44,75.7,0
"2021-07-26 00:37:39+00",17.4,20.4,,75.8,-411,-690,1,1011.41,75.6,0
"2021-07-26 00:42:39+00",15.6,18.6,,75.8,-396,-607,15,1011.47,75.6,0
"2021-07-26 00:47:39+00",17.7,20.7,,75.7,-431,-712,17,1011.41,75.5,0
"2021-07-26 00:52:39+00",16.8,18.8,,75.6,-419,-641,4,1011.5,75.5,0
"2021-07-26 00:57:39+00",14.2,17.2,,75.5,-299,-569,20,1011.44,75.3,0
"2021-07-26 01:02:39+00",14.4,17.4,,75.4,-335,-574,-1,1011.64,75.2,0
"2021-07-26 01:07:39+00",16.4,18.4,,75.3,-376,-645,0,1011.67,75.2,0
"2021-07-26 01:12:39+00",14.4,18.4,,75.3,-311,-597,2,1011.6,75.1,0
"2021-07-26 01:17:39+00",14.4,18.4,,75.2,-313,-581,12,1011.62,75.1,0
"2021-07-26 01:22:39+00",13.6,16.6,,75.2,-298,-541,2,1011.7,75,0
"2021-07-26 01:27:39+00",14.5,18.5,,75.3,-352,-574,14,1011.93,75.1,0
"2021-07-26 01:32:39+00",15.2,17.2,,75.4,-285,-618,7,1012.06,75.1,0
"2021-07-26 01:37:39+00",14.9,16.9,,75.4,-302,-609,5,1012.01,75.1,0
"2021-07-26 01:42:39+00",16.6,18.6,,75.3,-382,-656,6,1012.12,75.1,0
"2021-07-26 01:47:39+00",15.7,19.7,,75.1,-325,-623,8,1012,75,0
"2021-07-26 01:52:39+00",13.6,16.6,,75,-310,-550,0,1012.02,74.9,0
"2021-07-26 01:57:39+00",14.6,17.6,,74.9,-329,-576,9,1012.05,74.8,0
"2021-07-26 02:02:39+00",15.2,17.2,,74.9,-371,-602,11,1012.03,74.7,0
"2021-07-26 02:07:39+00",14.9,17.9,,74.8,-362,-574,-1,1012.12,74.7,0
"2021-07-26 02:12:39+00",14.6,18.6,,74.7,-343,-591,-4,1012.12,74.6,0
"2021-07-26 02:17:39+00",15.1,17.1,,74.6,-355,-594,-12,1012.12,74.5,0
"2021-07-26 02:22:39+00",14.8,17.8,,74.5,-386,-574,14,1012.14,74.4,0
"2021-07-26 02:27:39+00",15.9,19.9,,74.4,-395,-611,2,1012.28,74.4,0
"2021-07-26 02:32:39+00",14.2,17.2,,74.5,-397,-512,11,1012.23,74.3,0
"2021-07-26 02:37:39+00",13.2,16.2,,74.3,-369,-485,10,1012.25,74.3,0
"2021-07-26 02:42:39+00",14.1,16.1,,74.4,-428,-473,19,1012.19,74.2,0
"2021-07-26 02:47:39+00",13.9,15.9,,74.3,-397,-493,21,1012.16,74.2,0
"2021-07-26 02:52:39+00",15.3,16.3,,74.2,-436,-555,0,1012.12,74.2,0
"2021-07-26 02:57:39+00",16.0,19.0,,74.1,-468,-565,19,1012.06,74.1,0
"2021-07-26 03:02:39+00",15.3,17.3,,74.1,-448,-545,10,1012.06,74,0
"2021-07-26 03:07:39+00",12.2,14.2,,74,-362,-439,16,1012.04,74,0
"2021-07-26 03:12:39+00",13.9,17.9,,74.1,-443,-441,22,1012.05,74,0
"2021-07-26 03:17:39+00",13.9,15.9,,74.1,-420,-453,18,1012.01,74,0
"2021-07-26 03:22:39+00",12.5,14.5,,74.1,-375,-434,5,1011.93,74,0
"2021-07-26 03:27:39+00",17.1,20.1,,74.2,-527,-542,18,1011.96,74,0
"2021-07-26 03:32:39+00",15.1,18.1,,74.2,-447,-529,28,1011.96,74,0
"2021-07-26 03:37:39+00",13.8,15.8,,74.2,-422,-462,19,1011.94,74.1,0
"2021-07-26 03:42:39+00",15.0,18.0,,74,-504,-457,20,1012.09,74,0
"2021-07-26 03:47:39+00",16.5,19.5,,73.9,-568,-471,16,1012.05,73.9,0
"2021-07-26 03:52:39+00",17.5,20.5,,73.9,-571,-511,25,1012.07,73.9,0
"2021-07-26 03:57:39+00",15.4,17.4,,73.8,-499,-468,2,1012.18,73.9,0
"2021-07-26 04:02:39+00",15.1,18.1,,73.7,-480,-458,16,1012.08,73.8,0
"2021-07-26 04:07:39+00",13.8,15.8,,73.7,-445,-419,13,1012.19,73.8,0
"2021-07-26 04:12:39+00",10.8,12.8,,73.6,-326,-334,13,1012.17,73.7,0
"2021-07-26 04:17:39+00",11.5,13.5,,73.4,-342,-376,5,1012.29,73.5,0
"2021-07-26 04:22:39+00",12.5,13.5,,73.4,-373,-406,2,1012.3,73.4,0
"2021-07-26 04:27:39+00",11.6,13.6,,73.3,-358,-393,7,1012.34,73.3,0
"2021-07-26 04:32:39+00",10.2,12.2,,73.2,-273,-377,8,1012.32,73.2,0
"2021-07-26 04:37:39+00",12.5,14.5,,73.2,-364,-433,7,1012.22,73.1,0
"2021-07-26 04:42:39+00",9.9,10.9,,73.2,-238,-394,8,1012.14,73.1,0
"2021-07-26 04:47:39+00",10.1,11.1,,73.2,-165,-406,-7,1012.15,73.1,0
"2021-07-26 04:52:39+00",7.2,8.2,,73.2,-149,-288,6,1012.09,73.1,0
"2021-07-26 04:57:39+00",8.6,9.6,,73.3,-178,-342,3,1012.14,73.1,0
"2021-07-26 05:02:39+00",10.8,11.8,,73.3,-272,-406,1,1012.24,73.1,0
"2021-07-26 05:07:39+00",9.8,11.8,,73.3,-253,-380,2,1012.29,73.2,0
"2021-07-26 05:12:39+00",10.1,11.1,,73.4,-285,-375,-2,1012.28,73.2,0
"2021-07-26 05:17:39+00",8.3,10.3,,73.3,-256,-268,4,1012.24,73.2,0
"2021-07-26 05:22:39+00",9.4,10.4,,73.5,-260,-344,5,1012.22,73.3,0
"2021-07-26 05:27:39+00",9.3,10.3,,73.8,-215,-356,-1,1012.16,73.3,0
"2021-07-26 05:32:39+00",7.6,8.6,,73.8,-109,-311,-4,1011.95,73.3,0
"2021-07-26 05:37:39+00",7.1,9.1,,73.8,-86,-285,0,1011.88,73.3,0
"2021-07-26 05:42:39+00",7.7,9.7,,73.8,-87,-318,-5,1011.87,73.3,0
"2021-07-26 05:47:39+00",8.2,10.2,,73.8,-83,-354,-4,1011.86,73.3,0
"2021-07-26 05:52:39+00",8.8,9.8,,73.8,-89,-363,-13,1011.81,73.3,0
"2021-07-26 05:57:39+00",9.2,11.2,,73.6,-81,-390,3,1011.8,73.2,0
"2021-07-26 06:02:39+00",7.9,10.9,,73.1,-67,-324,9,1011.83,72.9,0
"2021-07-26 06:07:39+00",8.0,10.0,,72.8,-72,-349,-7,1011.91,72.7,0
"2021-07-26 06:12:39+00",9.8,13.8,,72.7,-78,-410,-12,1011.87,72.5,0
"2021-07-26 06:17:39+00",10.1,13.1,,72.6,-61,-423,-10,1011.68,72.4,0
"2021-07-26 06:22:39+00",8.6,11.6,,72.6,-56,-348,3,1011.64,72.4,0
"2021-07-26 06:27:39+00",9.4,11.4,,72.6,-97,-401,-10,1011.68,72.4,0
"2021-07-26 06:32:39+00",9.2,11.2,,72.6,-75,-375,-6,1011.54,72.3,0
"2021-07-26 06:37:39+00",10.5,12.5,,72.5,-153,-431,-16,1011.62,72.2,0
"2021-07-26 06:42:39+00",8.7,10.7,,72.5,-125,-356,0,1011.59,72.2,0
"2021-07-26 06:47:39+00",8.3,9.3,,72.6,-131,-336,1,1011.53,72.3,0
"2021-07-26 06:52:39+00",9.0,10.0,,72.5,-124,-365,-5,1011.49,72.2,0
"2021-07-26 06:57:39+00",7.8,9.8,,72.5,-111,-317,-5,1011.47,72.2,0
"2021-07-26 07:02:39+00",8.3,9.3,,72.6,-121,-337,-3,1011.46,72.2,0
"2021-07-26 07:07:39+00",8.2,9.2,,72.6,-106,-332,-9,1011.45,72.2,0
"2021-07-26 07:12:39+00",7.3,8.3,,72.6,-150,-287,1,1011.59,72.2,0
"2021-07-26 07:17:39+00",6.1,8.1,,72.6,-68,-246,-10,1011.54,72.2,0
"2021-07-26 07:22:39+00",4.5,5.5,,72.7,-126,-153,2,1011.51,72.2,0
"2021-07-26 07:27:39+00",5.4,6.4,,72.7,-56,-223,-8,1011.47,72.2,0
"2021-07-26 07:32:39+00",5.3,6.3,,72.7,-41,-208,-2,1011.47,72.3,0
"2021-07-26 07:37:39+00",4.4,6.4,,72.7,-39,-168,-6,1011.42,72.3,0
"2021-07-26 07:42:39+00",5.5,7.5,,72.8,-53,-221,-2,1011.51,72.4,0
"2021-07-26 07:47:39+00",5.3,6.3,,72.8,4,-211,-10,1011.51,72.4,0
"2021-07-26 07:52:39+00",6.2,7.2,,72.9,8,-254,-10,1011.56,72.5,0
"2021-07-26 07:57:39+00",6.1,8.1,,72.8,5,-236,6,1011.51,72.6,0
"2021-07-26 08:02:39+00",4.8,5.8,,72.9,-30,-188,-12,1011.4,72.6,0
"2021-07-26 08:07:39+00",7.6,10.6,,73,-82,-314,4,1011.51,72.6,0
"2021-07-26 08:12:39+00",5.3,7.3,,73.1,-38,-206,5,1011.51,72.8,0
"2021-07-26 08:17:39+00",7.5,8.5,,73.2,-104,-309,-3,1011.61,72.9,0
"2021-07-26 08:22:39+00",10.1,12.1,,73.3,-261,-376,-1,1011.51,72.9,0
"2021-07-26 08:27:39+00",8.9,9.9,,73.4,-239,-345,13,1011.49,73,0
"2021-07-26 08:32:39+00",8.1,10.1,,73.5,-236,-275,2,1011.48,73.1,0
"2021-07-26 08:37:39+00",10.1,11.1,,73.6,-309,-323,-2,1011.43,73.2,0
"2021-07-26 08:42:39+00",11.0,13.0,,73.7,-361,-327,11,1011.41,73.2,0
"2021-07-26 08:47:39+00",10.9,12.9,,73.7,-347,-328,6,1011.41,73.2,0
"2021-07-26 08:52:39+00",9.9,11.9,,73.6,-318,-319,8,1011.39,73.2,0
"2021-07-26 08:57:39+00",9.0,10.0,,73.5,-341,-241,9,1011.47,73.2,0
"2021-07-26 09:02:39+00",8.5,9.5,,73.6,-313,-221,12,1011.53,73.2,0
"2021-07-26 09:07:39+00",6.7,7.7,,73.7,-283,-150,8,1011.6,73.2,0
"2021-07-26 09:12:39+00",7.9,8.9,,73.8,-300,-206,18,1011.61,73.3,0
"2021-07-26 09:17:39+00",8.9,10.9,,73.9,-360,-157,13,1011.66,73.3,0
"2021-07-26 09:22:39+00",8.2,9.2,,73.9,-306,-208,5,1011.68,73.4,0
"2021-07-26 09:27:39+00",8.1,9.1,,73.9,-313,-215,23,1011.66,73.4,0
"2021-07-26 09:32:39+00",10.4,12.4,,73.8,-398,-274,21,1011.63,73.4,0
"2021-07-26 09:37:39+00",9.8,10.8,,73.9,-405,-238,11,1011.55,73.4,0
"2021-07-26 09:42:39+00",8.5,9.5,,73.9,-351,-203,20,1011.64,73.4,0
"2021-07-26 09:47:39+00",9.0,11.0,,74,-379,-166,7,1011.72,73.5,0
"2021-07-26 09:52:39+00",8.4,9.4,,74,-339,-130,8,1011.77,73.5,0
"2021-07-26 09:57:39+00",7.3,8.3,,74,-307,-177,9,1011.73,73.5,0
"2021-07-26 10:02:39+00",6.7,7.7,,74,-274,-143,5,1011.75,73.4,0
"2021-07-26 10:07:39+00",6.9,7.9,,73.9,-279,-90,8,1011.79,73.5,0
"2021-07-26 10:12:39+00",6.1,7.1,,73.8,-246,-119,4,1011.77,73.4,0
"2021-07-26 10:17:39+00",6.5,7.5,,73.8,-286,-30,7,1011.82,73.4,0
"2021-07-26 10:22:39+00",6.1,6.1,,73.9,-267,-16,3,1011.79,73.4,0
"2021-07-26 10:27:39+00",5.3,5.3,,74,-234,35,6,1011.88,73.4,0
"2021-07-26 10:32:39+00",5.1,6.1,,74.4,-209,85,3,1011.91,73.5,0
"2021-07-26 10:37:39+00",6.4,7.4,,75.1,-283,57,19,1011.9,74,0
"2021-07-26 10:42:39+00",5.3,6.3,,75.2,-217,104,8,1011.84,74.5,0
"2021-07-26 10:47:39+00",6.5,7.5,,75.2,-284,75,3,1011.83,74.6,0
"2021-07-26 10:52:39+00",5.7,6.7,,75.3,-251,67,7,1011.92,74.8,0
"2021-07-26 10:57:39+00",6.8,7.8,,75.4,-289,80,2,1011.95,74.9,0
"2021-07-26 11:02:39+00",5.3,6.3,,75.4,-205,101,20,1011.94,75.1,0
"2021-07-26 11:07:39+00",6.7,7.7,,75.4,-274,108,5,1011.98,75.2,0
"2021-07-26 11:12:39+00",5.7,6.7,,75.5,-243,71,18,1012,75.5,0
"2021-07-26 11:17:39+00",7.1,8.1,,75.6,-310,91,15,1012.04,75.7,0
"2021-07-26 11:22:39+00",5.9,6.9,,75.7,-251,52,29,1012.04,76.1,0
"2021-07-26 11:27:39+00",6.7,7.7,,75.6,-303,38,5,1012.02,76.4,0
"2021-07-26 11:32:39+00",6.2,7.2,,75.6,-273,57,11,1011.98,76.7,0
"2021-07-26 11:37:39+00",5.9,6.9,,75.6,-251,77,10,1011.87,77,0
"2021-07-26 11:42:39+00",6.6,7.6,,75.8,-289,81,4,1011.95,77.3,0
"2021-07-26 11:47:39+00",5.9,6.9,,75.7,-249,72,7,1011.91,77.6,0
"2021-07-26 11:52:39+00",5.8,6.8,,75.9,-260,69,12,1011.93,77.7,0
"2021-07-26 11:57:39+00",6.5,7.5,,75.9,-255,125,22,1011.92,77.8,0
"2021-07-26 12:02:39+00",7.8,8.8,,75.8,-342,72,-5,1011.91,78,0
"2021-07-26 12:07:39+00",6.2,7.2,,75.8,-274,36,5,1011.98,78,0
"2021-07-26 12:12:39+00",6.2,7.2,,75.8,-270,49,6,1012.09,77.9,0
"2021-07-26 12:17:39+00",5.8,5.8,,75.9,-254,39,7,1012.12,78,0
"2021-07-26 12:22:39+00",5.4,6.4,,76,-228,40,-5,1012.1,78.1,0
"2021-07-26 12:27:39+00",4.9,5.9,,76.1,-209,17,8,1012.09,78.4,0
"2021-07-26 12:32:39+00",5.7,6.7,,76.2,-236,-56,11,1012.05,78.7,0
"2021-07-26 12:37:39+00",6.2,7.2,,76.5,-266,38,23,1012.11,78.9,0
"2021-07-26 12:42:39+00",6.2,7.2,,76.7,-265,8,25,1012.2,79,0
"2021-07-26 12:47:39+00",6.3,7.3,,76.8,-266,-126,16,1012.18,79.1,0
"2021-07-26 12:52:39+00",6.7,7.7,,77,-290,-86,6,1012.22,79.3,0
"2021-07-26 12:57:39+00",7.4,8.4,,77,-323,-47,18,1012.18,79.5,0
"2021-07-26 13:02:39+00",6.8,8.8,,77.1,-278,-146,4,1012.18,80.1,0
"2021-07-26 13:07:39+00",7.8,8.8,,77.2,-314,-108,10,1012.13,80.5,0
"2021-07-26 13:12:39+00",7.3,8.3,,77.3,-299,-113,3,1012.16,80.8,0
"2021-07-26 13:17:39+00",7.6,8.6,,77.4,-326,-39,1,1012.07,80.7,0
"2021-07-26 13:22:39+00",6.8,8.8,,77.5,-285,-62,9,1012.04,80.9,0
"2021-07-26 13:27:39+00",6.9,8.9,,77.8,-270,-127,65,1012.08,81.4,0
"2021-07-26 13:32:39+00",8.2,9.2,,77.7,-332,-154,-3,1012.12,81.7,0
"2021-07-26 13:37:39+00",8.3,10.3,,77.8,-302,-216,1,1012.1,81.7,0
"2021-07-26 13:42:39+00",7.8,8.8,,77.8,-304,-129,28,1012.14,81.7,0
"2021-07-26 13:47:39+00",8.2,10.2,,77.9,-302,-202,12,1012.1,81.7,0
"2021-07-26 13:52:39+00",8.6,10.6,,78,-344,-214,-6,1012.06,81.6,0
"2021-07-26 13:57:39+00",9.1,11.1,,78.2,-343,-244,8,1012.16,81.6,0
"2021-07-26 14:02:39+00",9.1,10.1,,77.9,-332,-241,7,1012.16,81.5,0
"2021-07-26 14:07:39+00",8.6,9.6,,77.9,-318,-233,0,1012.19,81.4,0
"2021-07-26 14:12:39+00",7.6,8.6,,77.8,-230,-244,2,1012.08,81.3,0
"2021-07-26 14:17:39+00",9.1,10.1,,78,-287,-266,-2,1012.08,81.4,0
"2021-07-26 14:22:39+00",8.6,10.6,,78.1,-295,-249,12,1012.07,81.7,0
"2021-07-26 14:27:39+00",7.3,9.3,,78.3,-250,-215,54,1012.07,81.8,0
"2021-07-26 14:32:39+00",7.3,8.3,,78.4,-282,-180,1,1012.12,81.9,0
"2021-07-26 14:37:39+00",7.5,8.5,,78.6,-272,-202,21,1012.1,82.5,0
"2021-07-26 14:42:39+00",6.8,7.8,,79,-242,-187,25,1012.09,82.9,0
"2021-07-26 14:47:39+00",7.7,8.7,,79.1,-300,-159,5,1012.05,83.2,0
"2021-07-26 14:52:39+00",6.4,7.4,,79.3,-248,-118,30,1012.15,83.4,0
"2021-07-26 14:57:39+00",5.2,6.2,,79.5,-213,-61,26,1012.18,83.7,0
"2021-07-26 15:02:39+00",6.7,6.7,,79.6,-294,66,11,1012.2,84.2,0
"2021-07-26 15:07:39+00",7.3,7.3,,79.7,-323,51,47,1012.21,84.5,0
"2021-07-26 15:12:39+00",7.3,8.3,,80,-311,76,29,1012.18,84.8,0
"2021-07-26 15:17:39+00",7.0,8.0,,80.2,-305,57,2,1012.08,85.4,0
"2021-07-26 15:22:39+00",6.0,7.0,,80.3,-257,6,-11,1012.01,86,0
"2021-07-26 15:27:39+00",6.5,7.5,,80.5,-278,71,13,1012.09,86.3,0
"2021-07-26 15:32:39+00",6.8,7.8,,80.8,-296,24,12,1012.08,86.5,0
"2021-07-26 15:37:39+00",5.8,7.8,,81.1,-217,101,43,1012.05,86.4,0
"2021-07-26 15:42:39+00",7.1,8.1,,81.2,-234,207,9,1012.05,85.3,0
"2021-07-26 15:47:39+00",6.4,7.4,,80.9,-211,189,17,1012.23,84.3,0
"2021-07-26 15:52:39+00",6.4,8.4,,81.1,-242,169,2,1012.14,84,0
"2021-07-26 15:57:39+00",6.2,7.2,,81.6,-264,113,12,1012.17,84.4,0
"2021-07-26 16:02:39+00",7.2,8.2,,81.7,-311,50,-3,1012.12,85.4,0
"2021-07-26 16:07:39+00",8.2,9.2,,82.1,-331,142,24,1011.99,86.3,0
"2021-07-26 16:12:39+00",7.1,7.1,,82.2,-282,149,11,1011.97,86.8,0
"2021-07-26 16:17:39+00",6.6,7.6,,82.2,-264,140,-3,1011.93,86.5,0
"2021-07-26 16:22:39+00",7.3,8.3,,82.2,-287,163,8,1012.01,86.6,0
"2021-07-26 16:27:39+00",6.9,8.9,,82.6,-262,178,16,1012.01,86.8,0
"2021-07-26 16:32:39+00",6.5,7.5,,82.6,-293,55,39,1012.01,86.9,0
"2021-07-26 16:37:39+00",5.7,6.7,,82.8,-254,28,4,1011.98,87.6,0
"2021-07-26 16:42:39+00",5.7,7.7,,82.9,-257,38,14,1011.94,88.6,0
"2021-07-26 16:47:39+00",5.6,7.6,,83,-246,-10,5,1012.02,89.1,0
"2021-07-26 16:52:39+00",6.7,9.7,,81.9,39,-275,8,1012.02,87.1,0
"2021-07-26 16:57:39+00",7.8,8.8,,79.5,97,-324,-26,1012.05,82.5,0
"2021-07-26 17:02:39+00",6.9,8.9,,79,61,-299,-17,1012.03,81.2,0
"2021-07-26 17:07:39+00",7.9,8.9,,79.1,29,-340,-28,1012.08,80.5,0
"2021-07-26 17:12:39+00",5.6,7.6,,79.6,-4,-212,0,1012.12,80.6,0
"2021-07-26 17:17:39+00",6.1,9.1,,79.4,3,-257,2,1012.15,80.5,0
"2021-07-26 17:22:39+00",5.1,6.1,,80.2,-7,-189,60,1012.12,81.1,0
"2021-07-26 17:27:39+00",6.2,8.2,,80.9,-57,-254,36,1012.11,81.8,0
"2021-07-26 17:32:39+00",8.9,10.9,,81.1,-39,-356,-21,1012.04,82.1,0
"2021-07-26 17:37:39+00",7.1,10.1,,81.3,-47,-283,12,1012.1,82.5,0
"2021-07-26 17:42:39+00",5.7,6.7,,81.9,-37,-233,31,1012.04,83,0
"2021-07-26 17:47:39+00",7.0,9.0,,82.1,-46,-303,-10,1012.06,83.2,0
"2021-07-26 17:52:39+00",5.9,6.9,,82.3,-72,-238,4,1012.03,83.4,0
"2021-07-26 17:57:39+00",6.7,7.7,,82.6,-47,-288,-15,1012.05,83.7,0
"2021-07-26 18:02:39+00",5.3,7.3,,82.7,-9,-204,6,1012.11,83.9,0
"2021-07-26 18:07:39+00",6.6,7.6,,82.3,-18,-271,-15,1012.12,83.3,0
"2021-07-26 18:12:39+00",6.0,8.0,,81.9,-25,-247,28,1012.01,83,0
"2021-07-26 18:17:39+00",6.8,8.8,,82.1,-2,-283,-13,1011.99,83,0
"2021-07-26 18:22:39+00",5.0,7.0,,82.5,36,-201,20,1012.08,83.3,0
"2021-07-26 18:27:39+00",8.4,9.4,,81.4,99,-337,-14,1011.93,82.5,0
"2021-07-26 18:32:39+00",7.2,9.2,,79.7,63,-290,-2,1011.99,81.3,0
"2021-07-26 18:37:39+00",5.8,6.8,,79.9,-15,-240,-8,1011.97,80.9,0
"2021-07-26 18:42:39+00",4.2,6.2,,80.7,-12,-146,10,1011.93,81.4,0
"2021-07-26 18:47:39+00",5.0,6.0,,82.2,-32,-207,1,1011.97,82.6,0
"2021-07-26 18:52:39+00",4.9,6.9,,83.2,14,-206,6,1011.95,83.6,0
"2021-07-26 18:57:39+00",6.9,8.9,,81.7,64,-291,-14,1011.94,82.8,0
"2021-07-26 19:02:39+00",6.7,7.7,,81.4,96,-259,4,1011.86,82.8,0
"2021-07-26 19:07:39+00",7.7,8.7,,82.3,-267,-213,26,1012.03,83,0
"2021-07-26 19:12:39+00",11.7,14.7,,83.4,-533,54,32,1011.83,83.8,0
"2021-07-26 19:17:39+00",15.1,17.1,,82.2,-649,-116,43,1011.78,83.5,0
"2021-07-26 19:22:39+00",14.4,16.4,,81,-622,-133,26,1011.75,81.7,0
"2021-07-26 19:27:39+00",12.7,15.7,,81,-367,-444,6,1011.93,80.7,0
"2021-07-26 19:32:39+00",13.7,15.7,,79.4,-439,-420,15,1012.02,80,0
"2021-07-26 19:37:39+00",7.2,8.2,,79.7,-163,-276,-3,1011.91,79.9,0
"2021-07-26 19:42:39+00",7.0,8.0,,81.2,-221,-211,8,1011.73,81.2,0
"2021-07-26 19:47:39+00",6.6,7.6,,82.2,-198,-212,13,1011.61,83.2,0
"2021-07-26 19:52:39+00",6.0,7.0,,83.3,-209,-165,0,1011.48,85.2,0
"2021-07-26 19:57:39+00",5.9,6.9,,84.1,-223,-155,12,1011.44,87.1,0
"2021-07-26 20:02:39+00",4.9,5.9,,84.8,-194,-81,-9,1011.34,88.9,0
"2021-07-26 20:07:39+00",7.7,9.7,,85.3,-327,-66,6,1011.23,90.4,0
"2021-07-26 20:12:39+00",7.6,8.6,,85.4,-314,-136,-10,1011.15,91.5,0
"2021-07-26 20:17:39+00",7.3,9.3,,85.6,-285,-159,35,1011.14,92.3,0
"2021-07-26 20:22:39+00",7.0,8.0,,85.9,-278,-118,34,1011.28,93,0
"2021-07-26 20:27:39+00",5.5,7.5,,85.6,49,-207,-18,1011.41,92.4,0
"2021-07-26 20:32:39+00",13.4,14.4,,83.3,258,-528,-3,1011.37,88.1,0
"2021-07-26 20:37:39+00",10.8,12.8,,82.1,139,-429,-17,1011.41,84.6,0
"2021-07-26 20:42:39+00",8.3,11.3,,81.7,97,-334,7,1011.56,83.2,0
"2021-07-26 20:47:39+00",9.6,11.6,,81.7,105,-404,-16,1011.62,82.9,0
"2021-07-26 20:52:39+00",9.0,11.0,,81.9,60,-399,-16,1011.58,82.9,0
"2021-07-26 20:57:39+00",7.3,10.3,,82.2,54,-307,-17,1011.53,82.7,0
"2021-07-26 21:02:39+00",9.0,11.0,,82.3,89,-370,-28,1011.47,83,0
"2021-07-26 21:07:39+00",10.1,12.1,,81.1,122,-413,-13,1011.38,82.5,0
"2021-07-26 21:12:39+00",12.5,15.5,,80.6,75,-523,-27,1011.49,81.8,0
"2021-07-26 21:17:39+00",11.1,14.1,,80.3,-48,-474,24,1011.54,81.2,0
"2021-07-26 21:22:39+00",11.9,14.9,,79.9,-20,-506,-16,1011.44,80.8,0
"2021-07-26 21:27:39+00",11.0,13.0,,79.5,32,-476,-20,1011.37,80.4,0
"2021-07-26 21:32:39+00",9.8,11.8,,79.2,-4,-408,-4,1011.49,80,0
"2021-07-26 21:37:39+00",10.4,14.4,,78.5,76,-457,2,1011.5,79.3,0
"2021-07-26 21:42:39+00",10.8,11.8,,78,49,-455,-16,1011.6,78.7,0
"2021-07-26 21:47:39+00",11.7,14.7,,77.6,104,-509,-27,1011.58,78.2,0
"2021-07-26 21:52:39+00",8.4,11.4,,77.6,61,-336,-5,1011.62,78,0
"2021-07-26 21:57:39+00",11.1,13.1,,77.4,49,-474,-22,1011.58,77.8,0
"2021-07-26 22:02:39+00",9.8,10.8,,77,42,-415,-23,1011.66,77.4,0
"2021-07-26 22:07:39+00",8.6,11.6,,76.8,65,-374,-5,1011.49,77.2,0
"2021-07-26 22:12:39+00",9.4,10.4,,76.6,-2,-399,-35,1011.56,77,0
"2021-07-26 22:17:39+00",5.7,7.7,,76.7,5,-230,6,1011.58,77,0
"2021-07-26 22:22:39+00",5.7,6.7,,77,-30,-230,5,1011.57,77.2,0
"2021-07-26 22:27:39+00",4.3,5.3,,77.2,16,-164,-10,1011.43,77.4,0
"2021-07-26 22:32:39+00",5.2,6.2,,77.5,61,-205,-9,1011.52,77.8,0
"2021-07-26 22:37:39+00",6.1,7.1,,77.6,127,-210,20,1011.51,78.1,0
"2021-07-26 22:42:39+00",6.0,7.0,,77.5,50,-242,-6,1011.54,78,0
"2021-07-26 22:47:39+00",5.5,7.5,,77.4,38,-202,-7,1011.58,77.9,0
"2021-07-26 22:52:39+00",6.2,8.2,,77.4,72,-251,-16,1011.6,78,0
"2021-07-26 22:57:39+00",7.4,8.4,,77.2,102,-292,-15,1011.55,77.7,0
"2021-07-26 23:02:39+00",9.8,11.8,,76.5,85,-414,-7,1011.65,77.1,0
"2021-07-26 23:07:39+00",7.6,9.6,,76,116,-316,-3,1011.77,76.6,0
"2021-07-26 23:12:39+00",9.7,12.7,,75.7,99,-403,-2,1011.78,76.2,0
"2021-07-26 23:17:39+00",8.9,10.9,,75.6,87,-363,-3,1011.77,76.1,0
"2021-07-26 23:22:39+00",9.2,11.2,,75.5,131,-384,-8,1011.75,75.9,0
"2021-07-26 23:27:39+00",10.0,12.0,,75.3,148,-404,-16,1011.69,75.8,0
"2021-07-26 23:32:39+00",8.6,11.6,,75.1,65,-365,-13,1011.78,75.4,0
"2021-07-26 23:37:39+00",8.4,11.4,,75.1,67,-364,-13,1011.68,75.2,0
"2021-07-26 23:42:39+00",8.1,9.1,,75.2,63,-349,-17,1011.77,75.2,0
"2021-07-26 23:47:39+00",7.5,8.5,,75.5,7,-315,-23,1011.73,75.4,0
"2021-07-26 23:52:39+00",6.1,7.1,,76,-24,-249,-2,1011.69,75.6,0
"2021-07-26 23:57:39+00",6.1,7.1,,76.3,-54,-245,-12,1011.69,75.8,0
